| time (UTC) | temp F | wind direction | speed MPH | gust MPH | rain 1hr in | rain 24hr in | rain mn in | humidity % | barometer mb |
| 20260906195935 | 88 | 150 | 7.0 | 12.0 | 0.00 | 0.00 | 0.14 | 57 | 1014.9 |
| 20260906195854 | 88 | 150 | 7.0 | 12.0 | 0.00 | 0.00 | 0.14 | 57 | 1014.9 |
| 20260906195354 | 88 | 59 | 7.0 | 12.0 | 0.00 | 0.00 | 0.14 | 56 | 1014.9 |
| 20260906194854 | 88 | 145 | 7.0 | 10.0 | 0.00 | 0.00 | 0.14 | 56 | 1014.9 |
| 20260906194355 | 88 | 186 | 6.0 | 11.0 | 0.00 | 0.00 | 0.14 | 55 | 1015.2 |
| 20260906193854 | 89 | 129 | 4.0 | 9.0 | 0.00 | 0.00 | 0.14 | 60 | 1015.2 |
| 20260906193354 | 87 | 201 | 6.0 | 13.0 | 0.00 | 0.00 | 0.14 | 61 | 1015.2 |
| 20260906192936 | 87 | 170 | 6.0 | 13.0 | 0.00 | 0.00 | 0.14 | 60 | 1015.2 |
| 20260906192435 | 86 | 124 | 7.0 | 11.0 | 0.00 | 0.00 | 0.14 | 60 | 1015.2 |
| 20260906191935 | 85 | 122 | 6.0 | 11.0 | 0.00 | 0.00 | 0.14 | 64 | 1015.2 |
| 20260906191435 | 85 | 145 | 8.0 | 12.0 | 0.00 | 0.00 | 0.14 | 64 | 1015.2 |
| 20260906190935 | 85 | 163 | 6.0 | 9.0 | 0.00 | 0.00 | 0.14 | 63 | 1015.2 |
| 20260906190435 | 84 | 95 | 6.0 | 11.0 | 0.00 | 0.00 | 0.14 | 66 | 1015.6 |
| 20260906185937 | 82 | 194 | 8.0 | 13.0 | 0.00 | 0.00 | 0.14 | 67 | 1015.6 |
| 20260906185855 | 82 | 194 | 8.0 | 13.0 | 0.00 | 0.00 | 0.14 | 67 | 1015.6 |
| 20260906185435 | 84 | 165 | 6.0 | 10.0 | 0.00 | 0.00 | 0.14 | 68 | 1015.6 |
| 20260906184935 | 83 | 94 | 4.0 | 7.0 | 0.00 | 0.00 | 0.14 | 71 | 1015.6 |
| 20260906184855 | 83 | 94 | 4.0 | 7.0 | 0.00 | 0.00 | 0.14 | 71 | 1015.6 |
| 20260906184435 | 80 | 137 | 6.0 | 10.0 | 0.00 | 0.00 | 0.14 | 74 | 1015.6 |
| 20260906183935 | 79 | 107 | 6.0 | 9.0 | 0.00 | 0.00 | 0.14 | 76 | 1015.6 |
| 20260906183854 | 79 | 107 | 6.0 | 9.0 | 0.00 | 0.00 | 0.14 | 76 | 1015.6 |
| 20260906183435 | 80 | 141 | 7.0 | 11.0 | 0.00 | 0.00 | 0.14 | 75 | 1015.6 |
| 20260906183355 | 80 | 141 | 7.0 | 11.0 | 0.00 | 0.00 | 0.14 | 75 | 1015.6 |
| 20260906182935 | 80 | 208 | 6.0 | 11.0 | 0.00 | 0.00 | 0.14 | 77 | 1015.6 |
| 20260906182435 | 78 | 124 | 6.0 | 11.0 | 0.00 | 0.00 | 0.14 | 79 | 1015.9 |
| 20260906181935 | 78 | 105 | 3.0 | 8.0 | 0.00 | 0.00 | 0.14 | 81 | 1015.9 |
| 20260906181854 | 78 | 105 | 3.0 | 8.0 | 0.00 | 0.00 | 0.14 | 81 | 1015.9 |
| 20260906181435 | 77 | 126 | 5.0 | 12.0 | 0.00 | 0.00 | 0.14 | 82 | 1015.9 |
| 20260906180936 | 77 | 162 | 7.0 | 12.0 | 0.00 | 0.00 | 0.14 | 81 | 1015.9 |
| 20260906180435 | 77 | 96 | 4.0 | 9.0 | 0.00 | 0.00 | 0.14 | 83 | 1015.9 |
| 20260906180354 | 77 | 96 | 4.0 | 9.0 | 0.00 | 0.00 | 0.14 | 83 | 1015.9 |
| 20260906175854 | 77 | 134 | 6.0 | 7.0 | 0.00 | 0.00 | 0.14 | 83 | 1016.3 |
| 20260906175435 | 76 | 166 | 4.0 | 8.0 | 0.00 | 0.00 | 0.14 | 85 | 1016.3 |
| 20260906174936 | 76 | 89 | 4.0 | 9.0 | 0.00 | 0.00 | 0.14 | 85 | 1016.6 |
| 20260906174436 | 76 | 44 | 4.0 | 8.0 | 0.00 | 0.00 | 0.14 | 86 | 1016.6 |
| 20260906173935 | 76 | 224 | 4.0 | 6.0 | 0.00 | 0.00 | 0.14 | 86 | 1016.6 |
| 20260906173435 | 76 | 139 | 4.0 | 7.0 | 0.00 | 0.00 | 0.14 | 86 | 1016.6 |
| 20260906172935 | 76 | 98 | 3.0 | 11.0 | 0.00 | 0.00 | 0.14 | 86 | 1016.9 |
| 20260906172854 | 76 | 98 | 3.0 | 11.0 | 0.00 | 0.00 | 0.14 | 86 | 1016.9 |
| 20260906172354 | 76 | 127 | 3.0 | 8.0 | 0.00 | 0.00 | 0.14 | 88 | 1016.9 |
| 20260906171854 | 76 | 101 | 3.0 | 6.0 | 0.00 | 0.00 | 0.14 | 87 | 1016.9 |
| 20260906171359 | 75 | 118 | 2.0 | 10.0 | 0.00 | 0.00 | 0.14 | 90 | 1016.9 |
| 20260906170854 | 75 | 126 | 3.0 | 7.0 | 0.00 | 0.00 | 0.14 | 90 | 1016.9 |
| 20260906170354 | 74 | 120 | 4.0 | 8.0 | 0.01 | 0.00 | 0.14 | 89 | 1017.3 |
| 20260906165854 | 74 | 64 | 4.0 | 8.0 | 0.01 | 0.00 | 0.14 | 91 | 1017.3 |
| 20260906165354 | 74 | 124 | 3.0 | 6.0 | 0.01 | 0.00 | 0.14 | 92 | 1017.3 |
| 20260906164854 | 74 | 160 | 4.0 | 6.0 | 0.01 | 0.00 | 0.14 | 93 | 1017.3 |
| 20260906164354 | 73 | 138 | 3.0 | 5.0 | 0.01 | 0.00 | 0.14 | 94 | 1017.3 |
| 20260906163855 | 72 | 98 | 3.0 | 5.0 | 0.01 | 0.00 | 0.14 | 94 | 1017.3 |
| 20260906163354 | 72 | 62 | 3.0 | 5.0 | 0.01 | 0.00 | 0.14 | 95 | 1017.3 |
| 20260906162856 | 72 | 145 | 2.0 | 4.0 | 0.01 | 0.00 | 0.14 | 95 | 1017.6 |
| 20260906162357 | 72 | 90 | 3.0 | 6.0 | 0.01 | 0.00 | 0.14 | 95 | 1017.6 |
| 20260906161854 | 72 | 130 | 2.0 | 6.0 | 0.01 | 0.00 | 0.14 | 95 | 1017.9 |
| 20260906161436 | 71 | 153 | 2.0 | 3.0 | 0.00 | 0.00 | 0.14 | 95 | 1017.9 |
| 20260906160935 | 71 | 89 | 1.0 | 4.0 | 0.00 | 0.00 | 0.13 | 95 | 1017.9 |
| 20260906160435 | 71 | 117 | 2.0 | 3.0 | 0.00 | 0.00 | 0.10 | 95 | 1017.9 |
| 20260906155936 | 71 | 88 | 2.0 | 3.0 | 0.00 | 0.00 | 0.09 | 95 | 1018.3 |
| 20260906155435 | 71 | 102 | 0.0 | 3.0 | 0.00 | 0.00 | 0.08 | 95 | 1018.6 |
| 20260906154935 | 71 | 52 | 2.0 | 6.0 | 0.00 | 0.00 | 0.08 | 95 | 1018.3 |
| 20260906154855 | 71 | 52 | 2.0 | 6.0 | 0.00 | 0.00 | 0.08 | 95 | 1018.3 |
| 20260906154354 | 71 | 131 | 1.0 | 3.0 | 0.00 | 0.00 | 0.08 | 95 | 1018.3 |
| 20260906153854 | 71 | 90 | 1.0 | 3.0 | 0.00 | 0.00 | 0.08 | 95 | 1018.3 |
| 20260906153354 | 71 | 107 | 0.0 | 3.0 | 0.00 | 0.00 | 0.08 | 95 | 1018.3 |
| 20260906152854 | 71 | 114 | 1.0 | 4.0 | 0.00 | 0.00 | 0.08 | 95 | 1018.3 |
| 20260906152354 | 71 | 102 | 2.0 | 5.0 | 0.00 | 0.00 | 0.08 | 95 | 1018.3 |
| 20260906151936 | 71 | 78 | 2.0 | 4.0 | 0.00 | 0.00 | 0.08 | 95 | 1017.9 |
| 20260906151435 | 71 | 130 | 3.0 | 6.0 | 0.00 | 0.00 | 0.08 | 94 | 1017.9 |
| 20260906150935 | 71 | 129 | 3.0 | 6.0 | 0.00 | 0.00 | 0.08 | 94 | 1017.9 |
| 20260906150854 | 71 | 129 | 3.0 | 6.0 | 0.00 | 0.00 | 0.08 | 94 | 1017.9 |
| 20260906150435 | 71 | 119 | 3.0 | 6.0 | 0.00 | 0.00 | 0.08 | 94 | 1017.9 |
| 20260906150354 | 71 | 119 | 3.0 | 6.0 | 0.00 | 0.00 | 0.08 | 94 | 1017.9 |
| 20260906145935 | 71 | 123 | 3.0 | 6.0 | 0.00 | 0.00 | 0.08 | 94 | 1017.9 |
| 20260906145854 | 71 | 123 | 3.0 | 6.0 | 0.00 | 0.00 | 0.08 | 94 | 1017.9 |
| 20260906145435 | 71 | 110 | 2.0 | 6.0 | 0.00 | 0.00 | 0.08 | 94 | 1017.9 |
| 20260906144936 | 71 | 190 | 4.0 | 7.0 | 0.00 | 0.00 | 0.08 | 94 | 1017.9 |
| 20260906144854 | 71 | 190 | 4.0 | 7.0 | 0.01 | 0.00 | 0.08 | 94 | 1017.9 |
| 20260906144435 | 71 | 115 | 2.0 | 7.0 | 0.00 | 0.00 | 0.08 | 94 | 1017.9 |
| 20260906144355 | 71 | 115 | 2.0 | 7.0 | 0.01 | 0.00 | 0.08 | 94 | 1017.9 |
| 20260906143935 | 71 | 110 | 2.0 | 6.0 | 0.00 | 0.00 | 0.08 | 94 | 1017.9 |
| 20260906143435 | 71 | 128 | 4.0 | 6.0 | 0.00 | 0.00 | 0.08 | 94 | 1017.9 |
| 20260906143355 | 71 | 128 | 4.0 | 6.0 | 0.01 | 0.00 | 0.08 | 94 | 1017.9 |
| 20260906142854 | 71 | 117 | 3.0 | 5.0 | 0.01 | 0.00 | 0.08 | 94 | 1017.9 |
| 20260906142354 | 71 | 131 | 1.0 | 3.0 | 0.01 | 0.00 | 0.08 | 93 | 1017.9 |
| 20260906141855 | 71 | 93 | 0.0 | 1.0 | 0.01 | 0.00 | 0.08 | 93 | 1018.3 |
| 20260906141354 | 71 | 99 | 0.0 | 0.0 | 0.01 | 0.00 | 0.08 | 93 | 1018.3 |
| 20260906140855 | 71 | 78 | 0.0 | 3.0 | 0.01 | 0.00 | 0.07 | 93 | 1018.3 |
| 20260906140435 | 71 | 125 | 1.0 | 3.0 | 0.00 | 0.00 | 0.06 | 93 | 1018.3 |
| 20260906135935 | 71 | 106 | 0.0 | 3.0 | 0.00 | 0.00 | 0.06 | 93 | 1018.3 |
| 20260906135435 | 70 | 112 | 1.0 | 3.0 | 0.00 | 0.00 | 0.05 | 93 | 1017.9 |
| 20260906134935 | 71 | 88 | 0.0 | 3.0 | 0.00 | 0.00 | 0.04 | 92 | 1018.3 |
| 20260906134436 | 71 | 86 | 0.0 | 2.0 | 0.00 | 0.00 | 0.04 | 92 | 1018.3 |
| 20260906133935 | 71 | 81 | 0.0 | 3.0 | 0.00 | 0.00 | 0.04 | 92 | 1018.3 |
| 20260906133435 | 71 | 137 | 0.0 | 5.0 | 0.00 | 0.00 | 0.04 | 92 | 1018.3 |
| 20260906132936 | 71 | 76 | 3.0 | 5.0 | 0.00 | 0.00 | 0.03 | 92 | 1018.3 |
| 20260906132855 | 71 | 76 | 3.0 | 5.0 | 0.01 | 0.00 | 0.03 | 92 | 1018.3 |
| 20260906132435 | 71 | 111 | 2.0 | 3.0 | 0.00 | 0.00 | 0.02 | 91 | 1017.9 |
| 20260906131935 | 71 | 67 | 0.0 | 3.0 | 0.00 | 0.00 | 0.01 | 91 | 1018.3 |
| 20260906131435 | 71 | 276 | 1.0 | 5.0 | 0.00 | 0.00 | 0.01 | 91 | 1018.3 |
| 20260906130935 | 71 | 222 | 1.0 | 4.0 | 0.00 | 0.00 | 0.01 | 91 | 1017.9 |
| 20260906130855 | 71 | 222 | 1.0 | 4.0 | 0.00 | 0.00 | 0.01 | 91 | 1017.9 |
| 20260906130355 | 71 | 79 | 2.0 | 4.0 | 0.00 | 0.00 | 0.01 | 91 | 1017.9 |
| 20260906125854 | 71 | 2 | 2.0 | 4.0 | 0.00 | 0.00 | 0.01 | 91 | 1017.9 |
| 20260906125355 | 71 | 360 | 3.0 | 6.0 | 0.00 | 0.00 | 0.00 | 91 | 1017.9 |
| 20260906124855 | 71 | 98 | 4.0 | 6.0 | 0.00 | 0.00 | 0.00 | 90 | 1017.9 |
| 20260906124435 | 71 | 137 | 2.0 | 4.0 | 0.00 | 0.00 | 0.00 | 90 | 1017.6 |
| 20260906124354 | 71 | 137 | 2.0 | 4.0 | 0.00 | 0.00 | 0.00 | 90 | 1017.6 |
| 20260906123935 | 71 | 86 | 3.0 | 7.0 | 0.00 | 0.00 | 0.00 | 90 | 1017.6 |
| 20260906123436 | 71 | 26 | 3.0 | 7.0 | 0.00 | 0.00 | 0.00 | 89 | 1017.6 |
| 20260906122935 | 71 | 66 | 1.0 | 5.0 | 0.00 | 0.00 | 0.00 | 89 | 1017.6 |
| 20260906122435 | 71 | 310 | 3.0 | 6.0 | 0.00 | 0.00 | 0.00 | 88 | 1017.6 |
| 20260906122354 | 71 | 310 | 3.0 | 6.0 | 0.00 | 0.00 | 0.00 | 88 | 1017.6 |
| 20260906121854 | 72 | 64 | 4.0 | 8.0 | 0.00 | 0.00 | 0.00 | 87 | 1017.6 |
| 20260906121435 | 72 | 54 | 2.0 | 9.0 | 0.00 | 0.00 | 0.00 | 86 | 1017.6 |
| 20260906121355 | 72 | 54 | 2.0 | 9.0 | 0.00 | 0.00 | 0.00 | 86 | 1017.6 |
| 20260906120935 | 72 | 347 | 7.0 | 10.0 | 0.00 | 0.00 | 0.00 | 85 | 1017.6 |
| 20260906120436 | 72 | 297 | 7.0 | 12.0 | 0.00 | 0.00 | 0.00 | 84 | 1017.6 |
| 20260906115935 | 73 | 318 | 4.0 | 6.0 | 0.00 | 0.00 | 0.00 | 83 | 1017.3 |
| 20260906115854 | 73 | 318 | 4.0 | 6.0 | 0.00 | 0.00 | 0.00 | 83 | 1017.3 |
| 20260906115435 | 73 | 72 | 6.0 | 11.0 | 0.00 | 0.00 | 0.00 | 82 | 1017.3 |
| 20260906115354 | 73 | 72 | 6.0 | 11.0 | 0.00 | 0.00 | 0.00 | 82 | 1017.3 |
| 20260906114935 | 74 | 278 | 8.0 | 11.0 | 0.00 | 0.00 | 0.00 | 80 | 1017.3 |
| 20260906114435 | 74 | 334 | 6.0 | 13.0 | 0.00 | 0.00 | 0.00 | 78 | 1017.3 |
| 20260906113935 | 75 | 283 | 7.0 | 15.0 | 0.00 | 0.00 | 0.00 | 75 | 1017.3 |
| 20260906113854 | 75 | 283 | 7.0 | 15.0 | 0.00 | 0.00 | 0.00 | 75 | 1017.3 |
| 20260906113355 | 76 | 1 | 10.0 | 15.0 | 0.00 | 0.00 | 0.00 | 72 | 1016.9 |
| 20260906112855 | 76 | 316 | 10.0 | 13.0 | 0.00 | 0.00 | 0.00 | 70 | 1016.6 |
| 20260906112354 | 76 | 329 | 8.0 | 11.0 | 0.00 | 0.00 | 0.00 | 69 | 1016.6 |
| 20260906111935 | 77 | 310 | 8.0 | 10.0 | 0.00 | 0.00 | 0.00 | 68 | 1016.6 |
| 20260906111854 | 77 | 310 | 8.0 | 10.0 | 0.00 | 0.00 | 0.00 | 68 | 1016.6 |
| 20260906111354 | 76 | 324 | 4.0 | 6.0 | 0.00 | 0.00 | 0.00 | 67 | 1016.3 |
| 20260906110935 | 76 | 191 | 2.0 | 5.0 | 0.00 | 0.00 | 0.00 | 68 | 1015.6 |
| 20260906110435 | 76 | 175 | 4.0 | 5.0 | 0.00 | 0.00 | 0.00 | 69 | 1015.2 |
| 20260906105935 | 76 | 168 | 3.0 | 4.0 | 0.00 | 0.00 | 0.00 | 70 | 1015.2 |
| 20260906105435 | 76 | 207 | 4.0 | 6.0 | 0.00 | 0.00 | 0.00 | 70 | 1014.9 |
| 20260906104935 | 76 | 135 | 3.0 | 5.0 | 0.00 | 0.00 | 0.00 | 70 | 1014.9 |
| 20260906104854 | 76 | 135 | 3.0 | 5.0 | 0.00 | 0.00 | 0.00 | 70 | 1014.9 |
| 20260906104354 | 76 | 90 | 4.0 | 5.0 | 0.00 | 0.00 | 0.00 | 70 | 1014.6 |
| 20260906103936 | 76 | 114 | 2.0 | 5.0 | 0.00 | 0.00 | 0.00 | 70 | 1014.6 |
| 20260906103854 | 76 | 114 | 2.0 | 5.0 | 0.00 | 0.00 | 0.00 | 70 | 1014.6 |
| 20260906103435 | 76 | 104 | 2.0 | 5.0 | 0.00 | 0.00 | 0.00 | 70 | 1014.2 |
| 20260906102935 | 76 | 112 | 2.0 | 5.0 | 0.00 | 0.00 | 0.00 | 70 | 1014.2 |
| 20260906102435 | 76 | 121 | 3.0 | 6.0 | 0.00 | 0.00 | 0.00 | 70 | 1014.2 |
| 20260906102354 | 76 | 121 | 3.0 | 6.0 | 0.00 | 0.00 | 0.00 | 70 | 1014.2 |
| 20260906101935 | 76 | 208 | 4.0 | 7.0 | 0.00 | 0.00 | 0.00 | 69 | 1014.2 |
| 20260906101854 | 76 | 208 | 4.0 | 7.0 | 0.00 | 0.00 | 0.00 | 69 | 1014.2 |
| 20260906101435 | 76 | 199 | 4.0 | 7.0 | 0.00 | 0.00 | 0.00 | 69 | 1014.2 |
| 20260906100936 | 76 | 153 | 3.0 | 6.0 | 0.00 | 0.00 | 0.00 | 69 | 1014.2 |
| 20260906100855 | 76 | 153 | 3.0 | 6.0 | 0.00 | 0.00 | 0.00 | 69 | 1014.2 |
| 20260906100435 | 76 | 168 | 4.0 | 6.0 | 0.00 | 0.00 | 0.00 | 69 | 1014.2 |
| 20260906095935 | 76 | 173 | 3.0 | 6.0 | 0.00 | 0.00 | 0.00 | 70 | 1014.2 |
| 20260906095435 | 76 | 132 | 3.0 | 5.0 | 0.00 | 0.00 | 0.00 | 71 | 1014.2 |
| 20260906095354 | 76 | 132 | 3.0 | 5.0 | 0.00 | 0.00 | 0.00 | 71 | 1014.2 |
| 20260906094935 | 75 | 152 | 3.0 | 5.0 | 0.00 | 0.00 | 0.00 | 72 | 1014.2 |
| 20260906094854 | 75 | 152 | 3.0 | 5.0 | 0.00 | 0.00 | 0.00 | 72 | 1014.2 |
| 20260906094355 | 75 | 161 | 4.0 | 6.0 | 0.00 | 0.00 | 0.00 | 72 | 1014.2 |
| 20260906093935 | 74 | 106 | 2.0 | 6.0 | 0.00 | 0.00 | 0.00 | 74 | 1014.2 |
| 20260906093435 | 74 | 130 | 3.0 | 5.0 | 0.00 | 0.00 | 0.00 | 75 | 1014.2 |
| 20260906092935 | 74 | 153 | 4.0 | 5.0 | 0.00 | 0.00 | 0.00 | 75 | 1014.2 |
| 20260906092435 | 74 | 151 | 3.0 | 4.0 | 0.00 | 0.00 | 0.00 | 75 | 1014.2 |
| 20260906091935 | 74 | 188 | 3.0 | 5.0 | 0.00 | 0.00 | 0.00 | 74 | 1013.9 |
| 20260906091855 | 74 | 188 | 3.0 | 5.0 | 0.00 | 0.00 | 0.00 | 74 | 1013.9 |
| 20260906091354 | 74 | 164 | 3.0 | 4.0 | 0.00 | 0.00 | 0.00 | 74 | 1013.9 |
| 20260906090935 | 74 | 132 | 2.0 | 6.0 | 0.00 | 0.00 | 0.00 | 75 | 1013.9 |
| 20260906090854 | 74 | 132 | 2.0 | 6.0 | 0.00 | 0.00 | 0.00 | 75 | 1013.9 |
| 20260906090436 | 74 | 149 | 4.0 | 6.0 | 0.00 | 0.00 | 0.00 | 75 | 1014.2 |
| 20260906085934 | 74 | 151 | 2.0 | 4.0 | 0.00 | 0.00 | 0.00 | 76 | 1014.2 |
| 20260906085435 | 74 | 116 | 2.0 | 5.0 | 0.00 | 0.00 | 0.00 | 76 | 1013.9 |
| 20260906085354 | 74 | 116 | 2.0 | 5.0 | 0.00 | 0.00 | 0.00 | 76 | 1013.9 |
| 20260906084855 | 74 | 120 | 1.0 | 4.0 | 0.00 | 0.00 | 0.00 | 76 | 1013.9 |
| 20260906084435 | 74 | 54 | 2.0 | 4.0 | 0.00 | 0.00 | 0.00 | 76 | 1013.9 |
| 20260906084354 | 74 | 54 | 2.0 | 4.0 | 0.00 | 0.00 | 0.00 | 76 | 1013.9 |
| 20260906083854 | 75 | 98 | 3.0 | 0.0 | 0.00 | 0.00 | 0.00 | 72 | 1014.2 |
| 20260906083354 | 75 | 98 | 3.0 | 0.0 | 0.00 | 0.00 | 0.00 | 72 | 1014.2 |
| 20260906082854 | 75 | 98 | 3.0 | 0.0 | 0.00 | 0.00 | 0.00 | 72 | 1014.2 |
| 20260906082355 | 75 | 98 | 3.0 | 0.0 | 0.00 | 0.00 | 0.00 | 72 | 1014.2 |
| 20260906081935 | 75 | 98 | 3.0 | 0.0 | 0.00 | 0.00 | 0.00 | 72 | 1014.2 |
| 20260906081435 | 75 | 98 | 3.0 | 0.0 | 0.00 | 0.00 | 0.00 | 72 | 1014.2 |
| 20260906081355 | 75 | 98 | 3.0 | 0.0 | 0.00 | 0.00 | 0.00 | 72 | 1014.2 |
| 20260906080935 | 75 | 98 | 3.0 | 4.0 | 0.00 | 0.00 | 0.00 | 72 | 1014.2 |
| 20260906080854 | 75 | 98 | 3.0 | 4.0 | 0.00 | 0.00 | 0.00 | 72 | 1014.2 |
| 20260906080435 | 75 | 105 | 2.0 | 4.0 | 0.00 | 0.00 | 0.00 | 72 | 1014.6 |
| 20260906080355 | 75 | 105 | 2.0 | 4.0 | 0.00 | 0.00 | 0.00 | 72 | 1014.6 |
| 20260906075941 | 75 | 80 | 2.0 | 4.0 | 0.00 | 0.00 | 0.00 | 73 | 1014.6 |
| 20260906075447 | 75 | 99 | 2.0 | 0.0 | 0.00 | 0.00 | 0.00 | 73 | 1014.6 |
| 20260906075358 | 75 | 99 | 2.0 | 0.0 | 0.00 | 0.00 | 0.00 | 73 | 1014.6 |
| 20260906074855 | 75 | 99 | 2.0 | 0.0 | 0.00 | 0.00 | 0.00 | 73 | 1014.6 |
| 20260906074435 | 75 | 99 | 2.0 | 3.0 | 0.00 | 0.00 | 0.00 | 73 | 1014.6 |
| 20260906074354 | 75 | 99 | 2.0 | 3.0 | 0.00 | 0.00 | 0.00 | 73 | 1014.6 |
| 20260906073854 | 75 | 101 | 1.0 | 3.0 | 0.00 | 0.00 | 0.00 | 73 | 1014.6 |
| 20260906073354 | 76 | 123 | 1.0 | 0.0 | 0.00 | 0.00 | 0.00 | 70 | 1013.9 |
| 20260906072854 | 76 | 123 | 1.0 | 0.0 | 0.00 | 0.00 | 0.00 | 70 | 1013.9 |
| 20260906072354 | 76 | 123 | 1.0 | 0.0 | 0.00 | 0.00 | 0.00 | 70 | 1013.9 |
| 20260906071854 | 76 | 123 | 1.0 | 0.0 | 0.00 | 0.00 | 0.00 | 70 | 1013.9 |
| 20260906071354 | 76 | 123 | 1.0 | 0.0 | 0.00 | 0.00 | 0.00 | 70 | 1013.9 |
| 20260906070854 | 76 | 123 | 1.0 | 0.0 | 0.00 | 0.00 | 0.00 | 70 | 1013.9 |
| 20260906070354 | 76 | 123 | 1.0 | 0.0 | 0.00 | 0.00 | 0.00 | 70 | 1013.9 |
| 20260906065855 | 76 | 123 | 1.0 | 0.0 | 0.00 | 0.00 | 0.00 | 70 | 1013.9 |
| 20260906065354 | 76 | 123 | 1.0 | 0.0 | 0.00 | 0.00 | 0.00 | 70 | 1013.9 |
| 20260906064935 | 76 | 123 | 1.0 | 0.0 | 0.00 | 0.00 | 0.00 | 70 | 1013.9 |
| 20260906064854 | 76 | 123 | 1.0 | 0.0 | 0.00 | 0.00 | 0.00 | 70 | 1013.9 |
| 20260906064354 | 76 | 123 | 1.0 | 0.0 | 0.00 | 0.00 | 0.00 | 70 | 1013.9 |
| 20260906063854 | 76 | 123 | 1.0 | 0.0 | 0.00 | 0.00 | 0.00 | 70 | 1013.9 |
| 20260906063354 | 76 | 123 | 1.0 | 0.0 | 0.00 | 0.00 | 0.00 | 70 | 1013.9 |
| 20260906062935 | 76 | 123 | 1.0 | 0.0 | 0.00 | 0.00 | 0.00 | 70 | 1013.9 |
| 20260906062435 | 76 | 123 | 1.0 | 0.0 | 0.00 | 0.00 | 0.00 | 70 | 1013.9 |
| 20260906062354 | 76 | 123 | 1.0 | 0.0 | 0.00 | 0.00 | 0.00 | 70 | 1013.9 |
| 20260906061936 | 76 | 123 | 1.0 | 0.0 | 0.00 | 0.00 | 0.00 | 70 | 1013.9 |
| 20260906061436 | 76 | 123 | 1.0 | 0.0 | 0.00 | 0.00 | 0.00 | 70 | 1013.9 |
| 20260906060935 | 76 | 123 | 1.0 | 0.0 | 0.00 | 0.00 | 0.00 | 70 | 1013.9 |
| 20260906060854 | 76 | 123 | 1.0 | 0.0 | 0.00 | 0.00 | 0.00 | 70 | 1013.9 |
| 20260906060354 | 76 | 123 | 1.0 | 0.0 | 0.00 | 0.00 | 0.00 | 70 | 1013.9 |
| 20260906055854 | 76 | 123 | 1.0 | 0.0 | 0.00 | 0.00 | 0.00 | 70 | 1013.9 |
| 20260906055435 | 76 | 123 | 1.0 | 0.0 | 0.00 | 0.00 | 0.00 | 70 | 1013.9 |
| 20260906055354 | 76 | 123 | 1.0 | 0.0 | 0.00 | 0.00 | 0.00 | 70 | 1013.9 |
| 20260906054854 | 76 | 123 | 1.0 | 0.0 | 0.00 | 0.00 | 0.00 | 70 | 1013.9 |
| 20260906054435 | 76 | 123 | 1.0 | 0.0 | 0.00 | 0.00 | 0.00 | 70 | 1013.9 |
| 20260906054354 | 76 | 123 | 1.0 | 0.0 | 0.00 | 0.00 | 0.00 | 70 | 1013.9 |
| 20260906053854 | 76 | 123 | 1.0 | 3.0 | 0.00 | 0.00 | 0.00 | 70 | 1013.9 |
| 20260906053354 | 76 | 157 | 2.0 | 3.0 | 0.00 | 0.00 | 0.00 | 69 | 1013.9 |
| 20260906052854 | 76 | 157 | 2.0 | 4.0 | 0.00 | 0.00 | 0.00 | 69 | 1013.9 |
| 20260906052354 | 77 | 135 | 1.0 | 4.0 | 0.00 | 0.00 | 0.00 | 69 | 1013.9 |
| 20260906051855 | 77 | 87 | 1.0 | 4.0 | 0.00 | 0.00 | 0.00 | 68 | 1013.9 |
| 20260906051439 | 77 | 117 | 2.0 | 3.0 | 0.00 | 0.00 | 0.00 | 68 | 1013.9 |
| 20260906050935 | 77 | 119 | 2.0 | 3.0 | 0.00 | 0.00 | 0.00 | 68 | 1013.9 |
| 20260906050435 | 77 | 90 | 2.0 | 4.0 | 0.00 | 0.00 | 0.00 | 68 | 1014.2 |
| 20260906045936 | 77 | 104 | 0.0 | 2.0 | 0.00 | 0.00 | 0.00 | 68 | 1014.2 |
| 20260906045435 | 77 | 160 | 1.0 | 2.0 | 0.00 | 0.00 | 0.00 | 68 | 1014.2 |
| 20260906044935 | 77 | 115 | 2.0 | 3.0 | 0.00 | 0.00 | 0.00 | 68 | 1014.2 |
| 20260906044856 | 77 | 115 | 2.0 | 3.0 | 0.00 | 0.00 | 0.00 | 68 | 1014.2 |
| 20260906044436 | 77 | 92 | 0.0 | 0.0 | 0.00 | 0.00 | 0.00 | 67 | 1014.2 |
| 20260906043936 | 77 | 92 | 0.0 | 0.0 | 0.00 | 0.00 | 0.00 | 67 | 1014.2 |
| 20260906043436 | 77 | 92 | 0.0 | 0.0 | 0.00 | 0.00 | 0.00 | 67 | 1014.2 |
| 20260906042935 | 78 | 110 | 1.0 | 2.0 | 0.00 | 0.00 | 0.00 | 67 | 1014.2 |
| 20260906042435 | 78 | 182 | 1.0 | 2.0 | 0.00 | 0.00 | 0.00 | 66 | 1014.6 |
| 20260906041935 | 78 | 89 | 1.0 | 4.0 | 0.00 | 0.00 | 0.00 | 66 | 1014.6 |
| 20260906041435 | 78 | 76 | 1.0 | 3.0 | 0.00 | 0.00 | 0.00 | 66 | 1014.6 |
| 20260906040935 | 78 | 186 | 2.0 | 3.0 | 0.00 | 0.00 | 0.00 | 65 | 1014.6 |
| 20260906040435 | 79 | 187 | 2.0 | 4.0 | 0.00 | 0.00 | 0.00 | 65 | 1014.6 |
| 20260906035937 | 79 | 200 | 1.0 | 3.0 | 0.00 | 0.00 | 0.00 | 65 | 1014.6 |
| 20260906035435 | 79 | 101 | 1.0 | 3.0 | 0.00 | 0.00 | 0.00 | 65 | 1014.6 |
| 20260906034935 | 79 | 175 | 1.0 | 4.0 | 0.00 | 0.00 | 0.00 | 65 | 1014.6 |
| 20260906034435 | 79 | 160 | 2.0 | 4.0 | 0.00 | 0.00 | 0.00 | 65 | 1014.6 |
| 20260906033935 | 79 | 117 | 3.0 | 4.0 | 0.00 | 0.00 | 0.00 | 65 | 1014.2 |
| 20260906033435 | 79 | 123 | 2.0 | 5.0 | 0.00 | 0.00 | 0.00 | 65 | 1014.2 |
| 20260906032935 | 79 | 111 | 2.0 | 5.0 | 0.00 | 0.00 | 0.00 | 65 | 1014.2 |
| 20260906032435 | 78 | 186 | 2.0 | 3.0 | 0.00 | 0.00 | 0.00 | 66 | 1014.2 |
| 20260906032354 | 78 | 186 | 2.0 | 3.0 | 0.00 | 0.00 | 0.00 | 66 | 1014.2 |
| 20260906031935 | 78 | 131 | 0.0 | 3.0 | 0.00 | 0.00 | 0.00 | 66 | 1014.2 |
| 20260906031435 | 78 | 121 | 1.0 | 4.0 | 0.00 | 0.00 | 0.00 | 66 | 1013.9 |
| 20260906030935 | 79 | 160 | 2.0 | 4.0 | 0.00 | 0.00 | 0.00 | 66 | 1013.9 |
| 20260906030435 | 79 | 191 | 2.0 | 4.0 | 0.00 | 0.00 | 0.00 | 66 | 1013.9 |
| 20260906030354 | 79 | 191 | 2.0 | 4.0 | 0.00 | 0.00 | 0.00 | 66 | 1013.9 |
| 20260906025935 | 79 | 159 | 2.0 | 4.0 | 0.00 | 0.00 | 0.00 | 66 | 1013.9 |
| 20260906025436 | 79 | 165 | 2.0 | 4.0 | 0.00 | 0.00 | 0.00 | 66 | 1013.9 |
| 20260906025355 | 79 | 165 | 2.0 | 4.0 | 0.00 | 0.00 | 0.00 | 66 | 1013.9 |
| 20260906024855 | 79 | 180 | 1.0 | 2.0 | 0.00 | 0.00 | 0.00 | 66 | 1013.9 |
| 20260906024435 | 79 | 152 | 3.0 | 4.0 | 0.00 | 0.00 | 0.00 | 66 | 1013.5 |
| 20260906024355 | 79 | 152 | 3.0 | 4.0 | 0.00 | 0.00 | 0.00 | 66 | 1013.5 |
| 20260906023854 | 79 | 179 | 2.0 | 3.0 | 0.00 | 0.00 | 0.00 | 65 | 1013.5 |
| 20260906023435 | 80 | 115 | 1.0 | 3.0 | 0.00 | 0.00 | 0.00 | 64 | 1013.5 |
| 20260906023354 | 80 | 115 | 1.0 | 3.0 | 0.00 | 0.00 | 0.00 | 64 | 1013.5 |
| 20260906022854 | 80 | 90 | 3.0 | 5.0 | 0.00 | 0.00 | 0.00 | 64 | 1013.5 |
| 20260906022435 | 80 | 153 | 5.0 | 7.0 | 0.00 | 0.00 | 0.00 | 63 | 1013.5 |
| 20260906022355 | 80 | 153 | 5.0 | 7.0 | 0.00 | 0.00 | 0.00 | 63 | 1013.5 |
| 20260906021854 | 80 | 171 | 3.0 | 4.0 | 0.00 | 0.00 | 0.00 | 64 | 1013.5 |
| 20260906021357 | 80 | 143 | 2.0 | 4.0 | 0.00 | 0.00 | 0.00 | 63 | 1013.5 |
| 20260906020935 | 80 | 86 | 1.0 | 3.0 | 0.00 | 0.00 | 0.00 | 63 | 1013.5 |
| 20260906020854 | 80 | 86 | 1.0 | 3.0 | 0.00 | 0.00 | 0.00 | 63 | 1013.5 |
| 20260906020354 | 80 | 98 | 2.0 | 4.0 | 0.00 | 0.00 | 0.00 | 62 | 1013.5 |
| 20260906015854 | 81 | 95 | 2.0 | 4.0 | 0.00 | 0.00 | 0.00 | 61 | 1013.5 |
| 20260906015354 | 81 | 177 | 1.0 | 4.0 | 0.00 | 0.00 | 0.00 | 61 | 1013.2 |
| 20260906014854 | 81 | 141 | 1.0 | 3.0 | 0.00 | 0.00 | 0.00 | 60 | 1013.2 |
| 20260906014435 | 81 | 134 | 1.0 | 3.0 | 0.00 | 0.00 | 0.00 | 60 | 1012.9 |
| 20260906013935 | 81 | 106 | 2.0 | 3.0 | 0.00 | 0.00 | 0.00 | 60 | 1012.9 |
| 20260906013435 | 82 | 97 | 1.0 | 4.0 | 0.00 | 0.00 | 0.00 | 59 | 1012.9 |
| 20260906012936 | 82 | 162 | 2.0 | 4.0 | 0.00 | 0.00 | 0.00 | 59 | 1012.9 |
| 20260906012435 | 82 | 196 | 2.0 | 4.0 | 0.00 | 0.00 | 0.00 | 58 | 1012.9 |
| 20260906012354 | 82 | 196 | 2.0 | 4.0 | 0.00 | 0.00 | 0.00 | 58 | 1012.9 |
| 20260906011935 | 83 | 118 | 2.0 | 4.0 | 0.00 | 0.00 | 0.00 | 58 | 1012.9 |
| 20260906011854 | 83 | 118 | 2.0 | 4.0 | 0.00 | 0.00 | 0.00 | 58 | 1012.9 |
| 20260906011435 | 83 | 183 | 2.0 | 4.0 | 0.00 | 0.00 | 0.00 | 57 | 1012.5 |
| 20260906011354 | 83 | 183 | 2.0 | 4.0 | 0.00 | 0.00 | 0.00 | 57 | 1012.5 |
| 20260906010854 | 83 | 65 | 1.0 | 6.0 | 0.00 | 0.00 | 0.00 | 57 | 1012.5 |
| 20260906010354 | 83 | 110 | 2.0 | 3.0 | 0.00 | 0.00 | 0.00 | 57 | 1012.9 |
| 20260906005935 | 84 | 117 | 1.0 | 4.0 | 0.00 | 0.00 | 0.00 | 57 | 1012.9 |
| 20260906005855 | 84 | 117 | 1.0 | 4.0 | 0.00 | 0.00 | 0.00 | 57 | 1012.9 |
| 20260906005354 | 84 | 120 | 2.0 | 6.0 | 0.00 | 0.00 | 0.00 | 57 | 1012.9 |
| 20260906004935 | 84 | 116 | 3.0 | 6.0 | 0.00 | 0.00 | 0.00 | 57 | 1012.9 |
| 20260906004854 | 84 | 116 | 3.0 | 6.0 | 0.00 | 0.00 | 0.00 | 57 | 1012.9 |
| 20260906004355 | 84 | 200 | 3.0 | 6.0 | 0.00 | 0.00 | 0.00 | 57 | 1012.9 |
| 20260906003936 | 84 | 174 | 3.0 | 9.0 | 0.00 | 0.00 | 0.00 | 56 | 1012.9 |
| 20260906003854 | 84 | 174 | 3.0 | 9.0 | 0.00 | 0.00 | 0.00 | 56 | 1012.9 |
| 20260906003354 | 85 | 152 | 3.0 | 5.0 | 0.00 | 0.00 | 0.00 | 56 | 1012.9 |
| 20260906002935 | 85 | 255 | 2.0 | 7.0 | 0.00 | 0.00 | 0.00 | 56 | 1012.9 |
| 20260906002854 | 85 | 255 | 2.0 | 7.0 | 0.00 | 0.00 | 0.00 | 56 | 1012.9 |
| 20260906002354 | 85 | 92 | 3.0 | 4.0 | 0.00 | 0.00 | 0.00 | 55 | 1013.2 |
| 20260906001854 | 85 | 134 | 4.0 | 8.0 | 0.00 | 0.00 | 0.00 | 55 | 1013.2 |
| 20260906001435 | 85 | 111 | 6.0 | 11.0 | 0.00 | 0.00 | 0.00 | 54 | 1013.2 |
| 20260906000935 | 86 | 109 | 4.0 | 10.0 | 0.00 | 0.00 | 0.00 | 53 | 1013.2 |
| 20260906000435 | 86 | 231 | 4.0 | 7.0 | 0.00 | 0.00 | 0.00 | 52 | 1013.2 |
| 20260906000356 | 86 | 231 | 4.0 | 7.0 | 0.00 | 0.00 | 0.00 | 52 | 1013.2 |
| 20260905235854 | 87 | 205 | 5.0 | 15.0 | 0.00 | 0.00 | 0.00 | 51 | 1013.2 |
| 20260905235435 | 87 | 147 | 7.0 | 15.0 | 0.00 | 0.00 | 0.00 | 50 | 1013.2 |
| 20260905234935 | 87 | 259 | 6.0 | 9.0 | 0.00 | 0.00 | 0.00 | 49 | 1013.2 |
| 20260905234435 | 88 | 228 | 6.0 | 9.0 | 0.00 | 0.00 | 0.00 | 49 | 1013.2 |
| 20260905234356 | 88 | 228 | 6.0 | 9.0 | 0.00 | 0.00 | 0.00 | 49 | 1013.2 |
| 20260905233935 | 89 | 104 | 6.0 | 10.0 | 0.00 | 0.00 | 0.00 | 48 | 1013.2 |
| 20260905233435 | 89 | 181 | 7.0 | 9.0 | 0.00 | 0.00 | 0.00 | 48 | 1013.2 |
| 20260905233354 | 89 | 181 | 7.0 | 9.0 | 0.00 | 0.00 | 0.00 | 48 | 1013.2 |
| 20260905232935 | 89 | 156 | 6.0 | 9.0 | 0.00 | 0.00 | 0.00 | 49 | 1013.2 |
| 20260905232435 | 90 | 190 | 6.0 | 9.0 | 0.00 | 0.00 | 0.00 | 47 | 1013.2 |
| 20260905231935 | 90 | 100 | 6.0 | 14.0 | 0.00 | 0.00 | 0.00 | 45 | 1013.2 |
| 20260905231854 | 90 | 100 | 6.0 | 14.0 | 0.00 | 0.00 | 0.00 | 45 | 1013.2 |
| 20260905231355 | 91 | 79 | 7.0 | 14.0 | 0.00 | 0.00 | 0.00 | 44 | 1012.9 |
| 20260905230935 | 92 | 128 | 5.0 | 12.0 | 0.00 | 0.00 | 0.00 | 43 | 1012.9 |
| 20260905230854 | 92 | 128 | 5.0 | 12.0 | 0.00 | 0.00 | 0.00 | 43 | 1012.9 |
| 20260905230355 | 93 | 129 | 7.0 | 14.0 | 0.00 | 0.00 | 0.00 | 42 | 1012.9 |
| 20260905225854 | 93 | 133 | 8.0 | 17.0 | 0.00 | 0.00 | 0.00 | 41 | 1012.9 |
| 20260905225354 | 94 | 194 | 5.0 | 13.0 | 0.00 | 0.00 | 0.00 | 42 | 1012.9 |
| 20260905224854 | 93 | 133 | 8.0 | 14.0 | 0.00 | 0.00 | 0.00 | 43 | 1012.5 |
| 20260905224355 | 93 | 216 | 8.0 | 14.0 | 0.00 | 0.00 | 0.00 | 42 | 1012.9 |
| 20260905223854 | 95 | 219 | 8.0 | 12.0 | 0.00 | 0.00 | 0.00 | 40 | 1012.5 |
| 20260905223355 | 97 | 176 | 7.0 | 10.0 | 0.00 | 0.00 | 0.00 | 35 | 1012.5 |
| 20260905222854 | 97 | 49 | 6.0 | 9.0 | 0.00 | 0.00 | 0.00 | 36 | 1012.5 |
| 20260905222359 | 97 | 161 | 5.0 | 8.0 | 0.00 | 0.00 | 0.00 | 36 | 1012.2 |
| 20260905221935 | 98 | 153 | 6.0 | 10.0 | 0.00 | 0.00 | 0.00 | 36 | 1012.5 |
| 20260905221435 | 98 | 74 | 3.0 | 8.0 | 0.00 | 0.00 | 0.00 | 37 | 1012.2 |
| 20260905220935 | 98 | 165 | 6.0 | 14.0 | 0.00 | 0.00 | 0.00 | 37 | 1012.5 |
| 20260905220854 | 98 | 165 | 6.0 | 14.0 | 0.00 | 0.00 | 0.00 | 37 | 1012.5 |
| 20260905220435 | 98 | 232 | 6.0 | 8.0 | 0.00 | 0.00 | 0.00 | 36 | 1012.2 |
| 20260905220354 | 98 | 232 | 6.0 | 8.0 | 0.00 | 0.00 | 0.00 | 36 | 1012.2 |
| 20260905215935 | 99 | 143 | 6.0 | 11.0 | 0.00 | 0.00 | 0.00 | 35 | 1012.5 |
| 20260905215855 | 99 | 143 | 6.0 | 11.0 | 0.00 | 0.00 | 0.00 | 35 | 1012.5 |
| 20260905215435 | 99 | 147 | 5.0 | 9.0 | 0.00 | 0.00 | 0.00 | 35 | 1012.2 |
| 20260905214935 | 99 | 77 | 6.0 | 8.0 | 0.00 | 0.00 | 0.00 | 35 | 1012.2 |
| 20260905214435 | 99 | 56 | 5.0 | 10.0 | 0.00 | 0.00 | 0.00 | 37 | 1012.2 |
| 20260905213935 | 99 | 96 | 4.0 | 9.0 | 0.00 | 0.00 | 0.00 | 36 | 1012.5 |
| 20260905213854 | 99 | 96 | 4.0 | 9.0 | 0.00 | 0.00 | 0.00 | 36 | 1012.5 |
| 20260905213355 | 99 | 232 | 5.0 | 8.0 | 0.00 | 0.00 | 0.00 | 35 | 1012.5 |
| 20260905212854 | 99 | 165 | 6.0 | 13.0 | 0.00 | 0.00 | 0.00 | 37 | 1012.5 |
| 20260905212435 | 99 | 267 | 6.0 | 10.0 | 0.00 | 0.00 | 0.00 | 36 | 1012.5 |
| 20260905212354 | 99 | 267 | 6.0 | 10.0 | 0.00 | 0.00 | 0.00 | 36 | 1012.5 |
| 20260905211935 | 99 | 252 | 6.0 | 10.0 | 0.00 | 0.00 | 0.00 | 36 | 1012.5 |
| 20260905211854 | 99 | 252 | 6.0 | 10.0 | 0.00 | 0.00 | 0.00 | 36 | 1012.5 |
| 20260905211355 | 100 | 173 | 5.0 | 9.0 | 0.00 | 0.00 | 0.00 | 34 | 1012.9 |
| 20260905210854 | 100 | 85 | 4.0 | 9.0 | 0.00 | 0.00 | 0.00 | 34 | 1012.9 |
| 20260905210436 | 100 | 170 | 3.0 | 7.0 | 0.00 | 0.00 | 0.00 | 35 | 1012.9 |
| 20260905210354 | 100 | 170 | 3.0 | 7.0 | 0.00 | 0.00 | 0.00 | 35 | 1012.9 |
| 20260905205935 | 100 | 102 | 4.0 | 9.0 | 0.00 | 0.00 | 0.00 | 33 | 1012.9 |
| 20260905205435 | 100 | 119 | 2.0 | 9.0 | 0.00 | 0.00 | 0.00 | 35 | 1012.9 |
| 20260905204935 | 100 | 145 | 4.0 | 8.0 | 0.00 | 0.00 | 0.00 | 32 | 1012.9 |
| 20260905204435 | 99 | 139 | 7.0 | 13.0 | 0.00 | 0.00 | 0.00 | 31 | 1013.2 |
| 20260905204355 | 99 | 139 | 7.0 | 13.0 | 0.00 | 0.00 | 0.00 | 31 | 1013.2 |
| 20260905203935 | 101 | 151 | 4.0 | 6.0 | 0.00 | 0.00 | 0.00 | 30 | 1013.2 |
| 20260905203855 | 101 | 151 | 4.0 | 6.0 | 0.00 | 0.00 | 0.00 | 30 | 1013.2 |
| 20260905203354 | 100 | 352 | 4.0 | 8.0 | 0.00 | 0.00 | 0.00 | 30 | 1013.2 |
| 20260905202854 | 101 | 288 | 3.0 | 7.0 | 0.00 | 0.00 | 0.00 | 32 | 1013.2 |
| 20260905202436 | 100 | 14 | 3.0 | 9.0 | 0.00 | 0.00 | 0.00 | 33 | 1013.2 |
| 20260905202354 | 100 | 14 | 3.0 | 9.0 | 0.00 | 0.00 | 0.00 | 33 | 1013.2 |
| 20260905201854 | 100 | 124 | 6.0 | 9.0 | 0.00 | 0.00 | 0.00 | 32 | 1013.2 |
| 20260905201355 | 99 | 93 | 4.0 | 6.0 | 0.00 | 0.00 | 0.00 | 31 | 1013.2 |
| 20260905200855 | 99 | 159 | 4.0 | 8.0 | 0.00 | 0.00 | 0.00 | 31 | 1013.5 |
| 20260905200436 | 99 | 177 | 5.0 | 11.0 | 0.00 | 0.00 | 0.00 | 32 | 1013.5 |